QPF
0.01 0.01 0.01 0.02 0.02 0.03 0.03 0.04 0.05 0.04 0.04 0.03 0.03 0.03 0.03 0.04 0.02 0.02 0.02 0.03 0.03 0.02 0.03 0.03 0.04 0.05 0.05 0.05 0.04 0.03 0.03 0.03 0.03 0.02 0.03 0.04 0.03 0.03 0.03 0.02 0.02 0.01 0.01
0.01 0.01 0.01 0.01 0.02 0.02 0.02 0.03 0.05 0.05 0.05 0.05 0.06 0.06 0.05 0.06 0.04 0.03 0.03 0.04 0.04 0.03 0.03 0.03 0.04 0.05 0.04 0.03 0.03 0.02 0.02 0.02 0.03 0.03 0.03 0.02 0.02 0.02 0.03 0.03 0.02 0.02 0.01
0.02 0.02 0.01 0.01 0.01 0.01 0.02 0.02 0.03 0.04 0.04 0.05 0.05 0.05 0.06 0.07 0.06 0.05 0.04 0.05 0.04 0.04 0.04 0.03 0.03 0.04 0.03 0.02 0.02 0.02 0.02 0.03 0.03 0.03 0.02 0.02 0.02 0.02 0.02 0.02 0.02 0.02 0.01
0.01 0.01 0.01 0.01 0.01 0.01 0.01 0.02 0.03 0.03 0.03 0.04 0.05 0.05 0.05 0.05 0.06 0.05 0.05 0.05 0.04 0.04 0.03 0.03 0.02 0.02 0.03 0.03 0.03 0.02 0.03 0.03 0.04 0.03 0.02 0.02 0.02 0.02 0.01 0.01 0.01 0.01 0.01
0.01 0.01 0.00 0.00 0.01 0.01 0.01 0.01 0.01 0.01 0.02 0.03 0.04 0.05 0.05 0.04 0.04 0.04 0.05 0.05 0.05 0.04 0.03 0.02 0.02 0.02 0.02 0.03 0.03 0.03 0.04 0.05 0.05 0.04 0.04 0.03 0.03 0.02 0.02 0.01 0.02 0.02 0.02
0.02 0.01 0.01 0.01 0.00 0.01 0.01 0.01 0.01 0.02 0.02 0.02 0.03 0.02 0.03 0.03 0.03 0.04 0.04 0.04 0.04 0.04 0.03 0.02 0.02 0.03 0.03 0.03 0.03 0.05 0.06 0.06 0.05 0.05 0.05 0.04 0.03 0.02 0.02 0.03 0.03 0.03 0.03
0.02 0.02 0.03 0.03 0.02 0.01 0.01 0.01 0.02 0.02 0.02 0.01 0.01 0.02 0.01 0.02 0.02 0.02 0.03 0.03 0.03 0.03 0.03 0.03 0.02 0.02 0.03 0.02 0.02 0.02 0.04 0.05 0.06 0.05 0.05 0.05 0.05 0.04 0.03 0.02 0.02 0.03 0.03
0.03 0.02 0.02 0.03 0.03 0.03 0.02 0.02 0.02 0.02 0.01 0.01 0.01 0.01 0.02 0.01 0.02 0.01 0.02 0.02 0.02 0.02 0.03 0.03 0.03 0.03 0.03 0.03 0.02 0.01 0.01 0.01 0.02 0.03 0.04 0.04 0.04 0.05 0.05 0.05 0.04 0.04 0.03
0.03 0.05 0.04 0.02 0.02 0.02 0.02 0.02 0.03 0.03 0.02 0.01 0.01 0.01 0.02 0.03 0.03 0.03 0.03 0.02 0.03 0.02 0.03 0.03 0.03 0.03 0.03 0.03 0.03 0.02 0.01 0.01 0.01 0.03 0.04 0.04 0.05 0.05 0.06 0.06 0.05 0.05 0.04
0.02 0.04 0.06 0.03 0.02 0.02 0.02 0.03 0.03 0.03 0.03 0.03 0.03 0.02 0.02 0.02 0.03 0.03 0.03 0.03 0.02 0.02 0.03 0.02 0.02 0.02 0.02 0.02 0.02 0.02 0.03 0.02 0.02 0.02 0.02 0.02 0.03 0.04 0.04 0.04 0.03 0.04 0.05
0.01 0.02 0.04 0.04 0.03 0.02 0.02 0.03 0.03 0.03 0.03 0.03 0.03 0.03 0.02 0.03 0.04 0.04 0.04 0.03 0.02 0.02 0.02 0.02 0.01 0.02 0.02 0.02 0.02 0.02 0.02 0.02 0.02 0.02 0.02 0.02 0.02 0.03 0.04 0.03 0.03 0.04 0.04
0.01 0.01 0.02 0.03 0.02 0.02 0.02 0.02 0.02 0.03 0.03 0.04 0.04 0.03 0.02 0.03 0.03 0.03 0.04 0.04 0.03 0.03 0.02 0.01 0.01 0.02 0.02 0.02 0.02 0.02 0.03 0.03 0.03 0.02 0.02 0.01 0.01 0.03 0.04 0.05 0.05 0.04 0.04
0.00 0.01 0.01 0.01 0.02 0.02 0.02 0.01 0.01 0.02 0.02 0.03 0.05 0.04 0.02 0.03 0.03 0.02 0.03 0.04 0.05 0.04 0.03 0.02 0.02 0.02 0.03 0.03 0.03 0.03 0.03 0.03 0.02 0.02 0.01 0.01 0.01 0.02 0.03 0.05 0.07 0.07 0.06
0.01 0.01 0.02 0.01 0.02 0.02 0.02 0.02 0.01 0.02 0.02 0.03 0.03 0.05 0.04 0.03 0.03 0.02 0.02 0.03 0.03 0.04 0.03 0.03 0.02 0.02 0.02 0.02 0.02 0.03 0.03 0.03 0.03 0.02 0.02 0.02 0.02 0.03 0.03 0.03 0.04 0.05 0.06
0.01 0.01 0.02 0.02 0.02 0.01 0.01 0.01 0.02 0.01 0.02 0.02 0.03 0.04 0.05 0.04 0.03 0.04 0.03 0.02 0.03 0.03 0.03 0.03 0.02 0.02 0.02 0.01 0.01 0.01 0.02 0.02 0.02 0.02 0.01 0.02 0.02 0.03 0.03 0.04 0.04 0.04 0.04
0.01 0.01 0.01 0.02 0.02 0.02 0.01 0.02 0.02 0.01 0.02 0.03 0.03 0.03 0.05 0.05 0.03 0.04 0.04 0.04 0.04 0.04 0.04 0.03 0.02 0.02 0.02 0.01 0.01 0.01 0.01 0.01 0.01 0.01 0.01 0.01 0.02 0.02 0.03 0.04 0.05 0.05 0.04
0.01 0.01 0.01 0.01 0.02 0.02 0.03 0.03 0.03 0.02 0.02 0.03 0.03 0.05 0.07 0.06 0.04 0.03 0.04 0.04 0.04 0.04 0.04 0.04 0.04 0.03 0.03 0.02 0.01 0.01 0.01 0.01 0.01 0.01 0.01 0.01 0.01 0.02 0.02 0.02 0.03 0.04 0.04
0.03 0.02 0.02 0.01 0.02 0.02 0.03 0.03 0.03 0.02 0.03 0.03 0.05 0.07 0.09 0.08 0.05 0.03 0.03 0.03 0.03 0.03 0.03 0.04 0.04 0.04 0.04 0.03 0.02 0.02 0.02 0.02 0.01 0.01 0.01 0.01 0.01 0.01 0.02 0.01 0.01 0.02 0.02
0.03 0.03 0.04 0.04 0.04 0.04 0.04 0.03 0.02 0.02 0.02 0.02 0.02 0.03 0.04 0.06 0.05 0.04 0.03 0.02 0.02 0.03 0.02 0.02 0.02 0.02 0.03 0.02 0.02 0.02 0.02 0.02 0.02 0.02 0.02 0.01 0.01 0.01 0.02 0.02 0.01 0.01 0.01
0.03 0.03 0.04 0.04 0.04 0.04 0.03 0.03 0.03 0.03 0.02 0.01 0.01 0.02 0.02 0.03 0.03 0.03 0.03 0.02 0.03 0.03 0.02 0.02 0.02 0.02 0.02 0.02 0.01 0.01 0.01 0.01 0.02 0.02 0.02 0.02 0.02 0.02 0.02 0.01 0.01 0.01 0.01
0.02 0.02 0.01 0.01 0.02 0.02 0.02 0.02 0.03 0.02 0.02 0.02 0.02 0.03 0.03 0.02 0.02 0.03 0.03 0.03 0.03 0.03 0.02 0.02 0.02 0.02 0.01 0.01 0.01 0.02 0.02 0.01 0.01 0.01 0.01 0.02 0.02 0.02 0.02 0.02 0.02 0.01 0.01
0.01 0.01 0.01 0.01 0.00 0.01 0.01 0.01 0.02 0.02 0.02 0.02 0.03 0.04 0.05 0.03 0.03 0.03 0.03 0.03 0.03 0.03 0.02 0.02 0.02 0.01 0.01 0.02 0.02 0.02 0.01 0.01 0.01 0.01 0.02 0.02 0.02 0.02 0.02 0.02 0.02 0.02 0.02
0.01 0.01 0.01 0.01 0.01 0.01 0.01 0.01 0.01 0.01 0.02 0.03 0.03 0.03 0.04 0.04 0.04 0.04 0.04 0.04 0.03 0.04 0.05 0.04 0.02 0.01 0.01 0.01 0.01 0.01 0.02 0.02 0.02 0.02 0.03 0.03 0.03 0.03 0.03 0.02 0.02 0.02 0.02
0.01 0.01 0.01 0.01 0.01 0.01 0.01 0.01 0.01 0.02 0.02 0.03 0.04 0.04 0.04 0.05 0.05 0.04 0.04 0.03 0.03 0.03 0.04 0.06 0.06 0.06 0.04 0.03 0.02 0.02 0.02 0.03 0.03 0.03 0.03 0.04 0.05 0.05 0.05 0.04 0.03 0.02 0.02
0.01 0.01 0.01 0.01 0.01 0.01 0.01 0.01 0.01 0.01 0.01 0.02 0.02 0.03 0.04 0.04 0.04 0.04 0.04 0.04 0.03 0.03 0.04 0.04 0.05 0.07 0.07 0.06 0.04 0.04 0.03 0.04 0.05 0.05 0.04 0.04 0.05 0.05 0.05 0.06 0.05 0.03 0.03
0.01 0.01 0.01 0.01 0.02 0.01 0.01 0.01 0.02 0.02 0.01 0.01 0.01 0.02 0.02 0.02 0.02 0.03 0.03 0.02 0.02 0.02 0.03 0.03 0.03 0.03 0.03 0.02 0.02 0.03 0.03 0.02 0.03 0.04 0.05 0.05 0.05 0.05 0.05 0.05 0.05 0.04 0.03
MSLP
1012.23 1012.74 1013.25 1013.72 1014.15 1014.52 1014.84 1015.12 1015.38 1015.64 1015.92 1016.22 1016.55 1016.89 1017.24 1017.56 1017.87 1018.14 1018.38 1018.59 1018.78 1018.95 1019.10 1019.23 1019.32 1019.38 1019.39 1019.35 1019.28 1019.18 1019.07 1018.96 1018.85 1018.72 1018.58 1018.40 1018.16 1017.84 1017.45 1016.98 1016.47 1015.93 1015.39
1011.83 1012.36 1012.86 1013.34 1013.77 1014.15 1014.49 1014.79 1015.07 1015.35 1015.65 1015.97 1016.31 1016.67 1017.04 1017.39 1017.73 1018.04 1018.32 1018.58 1018.81 1019.01 1019.18 1019.32 1019.42 1019.47 1019.50 1019.48 1019.45 1019.41 1019.37 1019.34 1019.31 1019.26 1019.19 1019.05 1018.84 1018.54 1018.13 1017.64 1017.10 1016.52 1015.96
1011.35 1011.92 1012.45 1012.94 1013.39 1013.79 1014.14 1014.46 1014.76 1015.07 1015.38 1015.71 1016.06 1016.43 1016.80 1017.17 1017.54 1017.88 1018.20 1018.49 1018.76 1019.00 1019.19 1019.35 1019.47 1019.55 1019.60 1019.62 1019.64 1019.65 1019.68 1019.72 1019.77 1019.79 1019.78 1019.69 1019.51 1019.21 1018.81 1018.31 1017.74 1017.15 1016.57
1010.81 1011.43 1012.02 1012.55 1013.02 1013.44 1013.81 1014.15 1014.47 1014.79 1015.11 1015.45 1015.80 1016.17 1016.55 1016.93 1017.30 1017.67 1018.02 1018.34 1018.64 1018.91 1019.14 1019.34 1019.49 1019.60 1019.68 1019.74 1019.81 1019.88 1019.96 1020.07 1020.17 1020.25 1020.28 1020.23 1020.08 1019.81 1019.41 1018.92 1018.36 1017.77 1017.19
1010.23 1010.94 1011.58 1012.15 1012.66 1013.11 1013.50 1013.85 1014.19 1014.51 1014.84 1015.18 1015.53 1015.90 1016.28 1016.66 1017.03 1017.41 1017.78 1018.13 1018.46 1018.76 1019.03 1019.26 1019.45 1019.60 1019.72 1019.83 1019.93 1020.05 1020.18 1020.32 1020.46 1020.58 1020.64 1020.63 1020.50 1020.26 1019.90 1019.44 1018.90 1018.34 1017.79
1009.66 1010.44 1011.14 1011.76 1012.30 1012.76 1013.17 1013.54 1013.88 1014.21 1014.55 1014.89 1015.24 1015.60 1015.97 1016.35 1016.73 1017.11 1017.49 1017.86 1018.22 1018.56 1018.86 1019.13 1019.37 1019.56 1019.72 1019.87 1020.00 1020.14 1020.30 1020.46 1020.62 1020.76 1020.85 1020.86 1020.77 1020.56 1020.25 1019.84 1019.36 1018.86 1018.36
1009.12 1009.95 1010.69 1011.34 1011.90 1012.38 1012.80 1013.17 1013.52 1013.86 1014.20 1014.54 1014.89 1015.25 1015.61 1015.99 1016.37 1016.75 1017.14 1017.54 1017.92 1018.29 1018.64 1018.96 1019.23 1019.47 1019.67 1019.85 1020.01 1020.17 1020.34 1020.51 1020.67 1020.82 1020.92 1020.95 1020.89 1020.74 1020.48 1020.14 1019.74 1019.31 1018.87
1008.63 1009.48 1010.24 1010.89 1011.45 1011.92 1012.34 1012.71 1013.07 1013.41 1013.76 1014.11 1014.46 1014.82 1015.19 1015.57 1015.95 1016.34 1016.75 1017.16 1017.57 1017.98 1018.37 1018.73 1019.05 1019.33 1019.57 1019.78 1019.97 1020.15 1020.32 1020.49 1020.65 1020.80 1020.91 1020.96 1020.94 1020.84 1020.65 1020.39 1020.07 1019.71 1019.34
1008.23 1009.05 1009.78 1010.40 1010.94 1011.39 1011.80 1012.17 1012.52 1012.87 1013.23 1013.59 1013.96 1014.33 1014.71 1015.09 1015.48 1015.89 1016.31 1016.74 1017.19 1017.63 1018.06 1018.46 1018.83 1019.16 1019.45 1019.69 1019.90 1020.09 1020.28 1020.45 1020.61 1020.77 1020.89 1020.97 1020.99 1020.94 1020.82 1020.63 1020.39 1020.10 1019.79
1007.92 1008.68 1009.34 1009.91 1010.40 1010.82 1011.20 1011.56 1011.91 1012.27 1012.64 1013.01 1013.40 1013.79 1014.18 1014.58 1014.99 1015.41 1015.85 1016.31 1016.78 1017.26 1017.73 1018.18 1018.59 1018.97 1019.30 1019.58 1019.83 1020.04 1020.24 1020.43 1020.61 1020.77 1020.91 1021.02 1021.08 1021.09 1021.03 1020.90 1020.72 1020.49 1020.23
1007.74 1008.39 1008.96 1009.45 1009.88 1010.25 1010.60 1010.94 1011.29 1011.66 1012.04 1012.43 1012.83 1013.24 1013.66 1014.08 1014.50 1014.95 1015.41 1015.89 1016.38 1016.89 1017.40 1017.89 1018.35 1018.77 1019.14 1019.47 1019.75 1020.01 1020.24 1020.45 1020.65 1020.84 1021.01 1021.15 1021.25 1021.29 1021.28 1021.21 1021.08 1020.89 1020.65
1007.71 1008.24 1008.70 1009.10 1009.45 1009.77 1010.09 1010.41 1010.74 1011.11 1011.49 1011.90 1012.32 1012.75 1013.18 1013.62 1014.06 1014.52 1015.00 1015.51 1016.03 1016.56 1017.09 1017.61 1018.11 1018.57 1018.98 1019.35 1019.68 1019.97 1020.24 1020.49 1020.73 1020.95 1021.15 1021.33 1021.47 1021.55 1021.58 1021.54 1021.44 1021.27 1021.04
1007.84 1008.24 1008.60 1008.90 1009.18 1009.45 1009.72 1010.01 1010.33 1010.68 1011.07 1011.47 1011.90 1012.34 1012.78 1013.23 1013.69 1014.17 1014.67 1015.18 1015.72 1016.27 1016.82 1017.36 1017.88 1018.36 1018.81 1019.22 1019.59 1019.93 1020.24 1020.53 1020.81 1021.07 1021.32 1021.53 1021.70 1021.82 1021.87 1021.86 1021.77 1021.61 1021.38
1008.13 1008.42 1008.67 1008.89 1009.10 1009.30 1009.53 1009.78 1010.07 1010.40 1010.77 1011.16 1011.58 1012.02 1012.46 1012.92 1013.39 1013.88 1014.38 1014.91 1015.46 1016.01 1016.57 1017.12 1017.65 1018.16 1018.63 1019.06 1019.46 1019.84 1020.19 1020.53 1020.85 1021.16 1021.44 1021.69 1021.90 1022.04 1022.12 1022.12 1022.04 1021.89 1021.65
1008.54 1008.73 1008.90 1009.04 1009.19 1009.34 1009.51 1009.72 1009.96 1010.25 1010.58 1010.94 1011.33 1011.75 1012.19 1012.64 1013.12 1013.61 1014.13 1014.66 1015.21 1015.76 1016.32 1016.87 1017.40 1017.91 1018.39 1018.84 1019.27 1019.68 1020.07 1020.45 1020.81 1021.16 1021.49 1021.78 1022.01 1022.19 1022.29 1022.31 1022.25 1022.09 1021.86
1009.02 1009.14 1009.23 1009.31 1009.39 1009.49 1009.60 1009.75 1009.93 1010.16 1010.43 1010.74 1011.09 1011.48 1011.89 1012.33 1012.80 1013.30 1013.82 1014.36 1014.91 1015.47 1016.02 1016.56 1017.09 1017.60 1018.08 1018.54 1018.98 1019.42 1019.84 1020.26 1020.67 1021.06 1021.43 1021.76 1022.04 1022.25 1022.38 1022.42 1022.38 1022.24 1022.02
1009.48 1009.53 1009.57 1009.60 1009.62 1009.66 1009.70 1009.78 1009.89 1010.04 1010.24 1010.48 1010.77 1011.11 1011.49 1011.91 1012.37 1012.87 1013.39 1013.94 1014.49 1015.05 1015.61 1016.15 1016.67 1017.18 1017.66 1018.13 1018.59 1019.05 1019.51 1019.96 1020.41 1020.86 1021.27 1021.65 1021.98 1022.23 1022.40 1022.48 1022.47 1022.36 1022.16
1009.82 1009.83 1009.83 1009.81 1009.78 1009.75 1009.73 1009.72 1009.75 1009.81 1009.92 1010.08 1010.31 1010.59 1010.93 1011.32 1011.77 1012.26 1012.79 1013.34 1013.91 1014.47 1015.03 1015.58 1016.11 1016.62 1017.11 1017.60 1018.08 1018.57 1019.07 1019.57 1020.07 1020.57 1021.04 1021.47 1021.85 1022.16 1022.38 1022.51 1022.54 1022.47 1022.31
1009.98 1009.95 1009.91 1009.85 1009.77 1009.68 1009.59 1009.51 1009.45 1009.43 1009.45 1009.52 1009.67 1009.89 1010.18 1010.55 1010.98 1011.46 1011.99 1012.55 1013.12 1013.70 1014.27 1014.83 1015.37 1015.90 1016.42 1016.94 1017.46 1017.99 1018.54 1019.10 1019.66 1020.22 1020.75 1021.25 1021.69 1022.06 1022.34 1022.53 1022.61 1022.60 1022.48
1009.90 1009.85 1009.77 1009.68 1009.56 1009.42 1009.27 1009.12 1008.98 1008.87 1008.81 1008.81 1008.88 1009.04 1009.28 1009.61 1010.01 1010.48 1011.00 1011.56 1012.14 1012.74 1013.33 1013.91 1014.48 1015.04 1015.60 1016.16 1016.74 1017.33 1017.95 1018.57 1019.21 1019.84 1020.45 1021.01 1021.52 1021.96 1022.30 1022.55 1022.69 1022.73 1022.68
1009.57 1009.50 1009.40 1009.28 1009.13 1008.95 1008.75 1008.55 1008.35 1008.17 1008.04 1007.98 1007.99 1008.08 1008.28 1008.56 1008.93 1009.38 1009.89 1010.44 1011.03 1011.63 1012.24 1012.84 1013.45 1014.06 1014.68 1015.30 1015.95 1016.62 1017.31 1018.02 1018.74 1019.44 1020.13 1020.77 1021.35 1021.85 1022.26 1022.56 1022.77 1022.87 1022.86
1009.01 1008.91 1008.80 1008.66 1008.48 1008.28 1008.06 1007.82 1007.58 1007.37 1007.19 1007.08 1007.04 1007.09 1007.24 1007.48 1007.82 1008.23 1008.72 1009.26 1009.84 1010.45 1011.07 1011.71 1012.35 1013.02 1013.70 1014.40 1015.13 1015.89 1016.67 1017.46 1018.26 1019.05 1019.81 1020.52 1021.17 1021.73 1022.20 1022.56 1022.82 1022.97 1023.02
1008.24 1008.12 1007.98 1007.83 1007.64 1007.43 1007.19 1006.94 1006.69 1006.46 1006.27 1006.13 1006.07 1006.10 1006.21 1006.42 1006.73 1007.11 1007.57 1008.09 1008.66 1009.26 1009.90 1010.56 1011.25 1011.97 1012.72 1013.50 1014.32 1015.17 1016.04 1016.92 1017.81 1018.68 1019.51 1020.28 1020.98 1021.59 1022.11 1022.52 1022.82 1023.02 1023.12
1007.29 1007.14 1006.98 1006.80 1006.60 1006.38 1006.15 1005.90 1005.66 1005.44 1005.26 1005.13 1005.07 1005.09 1005.19 1005.39 1005.67 1006.04 1006.47 1006.98 1007.53 1008.14 1008.79 1009.47 1010.21 1010.98 1011.79 1012.66 1013.56 1014.49 1015.45 1016.43 1017.39 1018.33 1019.22 1020.04 1020.79 1021.44 1021.99 1022.44 1022.78 1023.02 1023.17
1006.19 1005.98 1005.78 1005.57 1005.35 1005.12 1004.88 1004.65 1004.43 1004.24 1004.09 1003.99 1003.96 1004.01 1004.13 1004.34 1004.63 1004.99 1005.42 1005.92 1006.48 1007.10 1007.76 1008.48 1009.25 1010.08 1010.96 1011.90 1012.88 1013.89 1014.93 1015.98 1017.01 1018.01 1018.95 1019.82 1020.60 1021.28 1021.86 1022.34 1022.71 1022.99 1023.18
1004.96 1004.67 1004.39 1004.12 1003.86 1003.60 1003.36 1003.14 1002.94 1002.79 1002.68 1002.64 1002.67 1002.77 1002.94 1003.20 1003.52 1003.92 1004.38 1004.91 1005.49 1006.13 1006.83 1007.59 1008.41 1009.29 1010.24 1011.24 1012.29 1013.38 1014.49 1015.59 1016.68 1017.73 1018.71 1019.61 1020.42 1021.13 1021.74 1022.24 1022.64 1022.96 1023.19
Thickness
5710 5708 5706 5704 5703 5701 5700 5699 5697 5695 5694 5694 5693 5693 5692 5691 5690 5689 5688 5687 5686 5685 5684 5683 5683 5682 5681 5680 5679 5678 5676 5675 5674 5675 5675 5675 5676 5677 5677 5677 5677 5677 5676
5704 5702 5700 5698 5697 5695 5694 5693 5692 5690 5689 5689 5688 5688 5687 5686 5685 5684 5682 5682 5680 5679 5679 5678 5678 5677 5676 5675 5674 5673 5672 5670 5669 5668 5669 5669 5670 5670 5670 5671 5671 5671 5671
5698 5695 5693 5691 5691 5689 5688 5688 5686 5685 5684 5684 5683 5682 5681 5680 5679 5679 5677 5676 5675 5675 5674 5674 5673 5672 5670 5670 5669 5668 5667 5666 5664 5663 5663 5663 5663 5664 5663 5664 5664 5664 5664
5691 5689 5686 5685 5685 5684 5682 5682 5681 5680 5679 5678 5678 5676 5675 5674 5673 5673 5672 5671 5670 5669 5669 5669 5669 5668 5667 5666 5664 5663 5662 5660 5658 5657 5657 5656 5656 5656 5656 5656 5656 5656 5657
5684 5682 5681 5680 5679 5678 5677 5676 5675 5674 5673 5672 5671 5670 5669 5668 5668 5667 5666 5665 5664 5663 5663 5663 5663 5663 5663 5662 5660 5659 5657 5654 5653 5652 5651 5649 5649 5649 5650 5650 5649 5649 5649
5677 5676 5675 5674 5673 5672 5671 5670 5668 5667 5667 5666 5665 5664 5663 5663 5662 5661 5660 5658 5658 5657 5657 5657 5657 5657 5657 5656 5655 5654 5652 5650 5648 5647 5645 5644 5644 5644 5643 5643 5642 5642 5642
5670 5669 5668 5667 5666 5665 5665 5663 5662 5661 5661 5659 5659 5657 5657 5657 5656 5655 5654 5653 5652 5651 5651 5651 5651 5651 5651 5650 5649 5648 5646 5646 5645 5643 5641 5640 5639 5639 5637 5636 5635 5636 5636
5661 5660 5660 5660 5659 5658 5657 5656 5656 5655 5654 5654 5652 5652 5651 5651 5650 5649 5648 5647 5646 5646 5646 5645 5645 5644 5644 5643 5642 5641 5640 5639 5639 5638 5637 5637 5635 5635 5633 5631 5630 5629 5629
5653 5653 5653 5653 5652 5651 5650 5650 5649 5648 5648 5648 5647 5646 5645 5645 5644 5643 5642 5641 5640 5640 5640 5639 5638 5638 5638 5636 5635 5634 5634 5634 5633 5633 5632 5632 5631 5630 5628 5625 5623 5622 5623
5647 5646 5646 5646 5645 5644 5644 5643 5643 5642 5642 5642 5641 5640 5639 5639 5638 5637 5635 5635 5633 5632 5632 5633 5633 5632 5631 5629 5628 5628 5627 5628 5627 5627 5626 5625 5624 5623 5622 5620 5619 5617 5617
5640 5639 5638 5638 5637 5637 5636 5636 5635 5635 5635 5635 5634 5633 5633 5632 5631 5630 5629 5628 5627 5626 5626 5626 5626 5625 5624 5623 5622 5623 5623 5622 5621 5620 5619 5619 5619 5618 5617 5616 5615 5613 5612
5631 5631 5630 5630 5630 5630 5629 5629 5629 5629 5628 5628 5626 5626 5626 5626 5625 5624 5623 5622 5621 5620 5620 5620 5620 5619 5618 5617 5616 5616 5615 5614 5614 5613 5612 5612 5612 5612 5611 5610 5609 5608 5607
5623 5622 5622 5622 5622 5622 5622 5622 5621 5622 5622 5622 5620 5620 5620 5620 5619 5617 5616 5615 5614 5613 5614 5614 5614 5612 5611 5611 5610 5609 5608 5608 5607 5606 5606 5606 5606 5606 5604 5603 5603 5601 5600
5615 5615 5615 5615 5615 5616 5616 5616 5615 5616 5616 5615 5614 5614 5614 5613 5612 5611 5609 5608 5607 5606 5606 5607 5606 5605 5604 5604 5603 5602 5602 5601 5600 5600 5599 5599 5599 5598 5597 5597 5596 5595 5594
5606 5607 5608 5608 5608 5609 5609 5609 5610 5610 5610 5610 5610 5609 5608 5608 5607 5605 5603 5602 5601 5600 5599 5599 5599 5598 5598 5597 5596 5596 5595 5594 5593 5593 5592 5591 5591 5591 5591 5590 5589 5588 5587
5599 5600 5600 5600 5601 5602 5602 5602 5603 5603 5604 5604 5603 5603 5603 5602 5601 5599 5597 5596 5595 5593 5592 5593 5593 5593 5593 5592 5591 5590 5589 5588 5587 5586 5585 5585 5584 5584 5584 5583 5582 5582 5581
5593 5593 5593 5593 5594 5594 5595 5595 5595 5596 5596 5596 5596 5596 5596 5596 5594 5593 5591 5589 5588 5586 5587 5588 5588 5587 5587 5586 5586 5585 5584 5583 5581 5580 5580 5579 5578 5577 5576 5576 5575 5575 5574
5586 5586 5587 5587 5587 5588 5589 5588 5589 5589 5589 5589 5589 5589 5589 5589 5588 5586 5584 5582 5581 5581 5582 5582 5582 5582 5581 5580 5579 5579 5578 5577 5575 5574 5573 5573 5572 5571 5570 5569 5568 5567 5567
5580 5581 5581 5581 5582 5582 5583 5582 5582 5582 5582 5582 5583 5583 5582 5581 5580 5578 5577 5577 5578 5577 5577 5577 5577 5576 5575 5574 5573 5572 5572 5571 5570 5568 5567 5566 5565 5564 5563 5562 5561 5559 5559
5574 5575 5575 5575 5576 5576 5576 5576 5576 5575 5575 5575 5576 5576 5575 5575 5574 5573 5571 5572 5572 5572 5572 5571 5571 5570 5569 5567 5566 5566 5565 5564 5564 5562 5561 5560 5558 5557 5556 5555 5554 5554 5553
5568 5568 5568 5569 5569 5570 5570 5570 5569 5569 5569 5569 5569 5569 5568 5568 5568 5567 5566 5566 5566 5566 5566 5565 5564 5563 5562 5561 5560 5559 5558 5557 5557 5555 5554 5553 5552 5550 5549 5548 5547 5546 5545
5562 5562 5562 5562 5563 5563 5563 5563 5562 5562 5562 5562 5562 5561 5559 5560 5560 5560 5559 5559 5559 5559 5560 5559 5558 5557 5556 5555 5554 5553 5551 5550 5549 5547 5546 5545 5544 5543 5541 5541 5540 5538 5538
5556 5556 5556 5556 5556 5556 5556 5555 5555 5555 5555 5555 5554 5554 5553 5553 5554 5554 5554 5554 5553 5553 5553 5552 5551 5550 5549 5548 5547 5545 5543 5542 5540 5538 5538 5537 5537 5536 5535 5534 5533 5532 5531
5550 5549 5549 5549 5548 5549 5548 5548 5547 5547 5547 5547 5546 5546 5546 5546 5546 5547 5547 5547 5547 5547 5546 5545 5545 5543 5542 5541 5539 5537 5535 5534 5532 5530 5529 5529 5529 5529 5528 5527 5527 5526 5526
5542 5542 5541 5541 5541 5541 5541 5541 5541 5540 5539 5539 5538 5538 5538 5539 5539 5539 5539 5540 5539 5539 5538 5537 5536 5535 5534 5533 5532 5530 5528 5526 5525 5523 5522 5522 5522 5522 5521 5521 5520 5520 5519
5535 5535 5534 5534 5534 5534 5534 5534 5534 5533 5532 5531 5530 5530 5530 5530 5531 5531 5531 5531 5531 5530 5529 5529 5528 5527 5526 5525 5524 5523 5521 5520 5519 5517 5516 5515 5515 5515 5514 5514 5514 5513 5513